Orbital Elements at Epoch 2459200.5 (2020-Dec-17.0) TDB
Reference: JPL 26 (heliocentric ecliptic J2000)
Element | Value | Uncertainty (1-sigma) | Units |
e | .3326337504200595 | 4.7722e-07 | |
a | .849127805471332 | 9.3181e-09 | au |
q | .5666792389514481 | 4.027e-07 | au |
i | 24.74304769461651 | 2.6203e-05 | deg |
node | 167.1312486396133 | 6.1577e-05 | deg |
peri | 299.9804151152119 | 6.842e-05 | deg |
M | 289.1054484374907 | 8.8653e-05 | deg |
tp | 2459256.781851972138 (2021-Feb-11.28185197) | 7.1012e-05 | TDB |
period | 285.7972335448761 0.78 | 4.7044e-06 1.288e-08 | d yr |
n | 1.259634306234362 | 2.0734e-08 | deg/d |
Q | 1.131576371991216 | 1.2418e-08 | au |
|
| | Orbit Determination Parameters
Additional Information
|